Birmingham, AL

2:38 AM CDT on May 23, 2017 (GMT -0500)
Birmingham International

Weather History for KBHM - September, 2013

Change the Weather History Date:

Sunday, September 15, 2013

  Actual Average Record
Temperature  
Mean Temperature 74 °F 75 °F  
Max Temperature 88 °F 86 °F 102 °F (1927)
Min Temperature 60 °F 65 °F 52 °F (1985)
Degree Days  
Heating Degree Days 0 0  
Month to date heating degree days 0 0  
Since 1 July heating degree days 0 0  
Cooling Degree Days 9 10  
Month to date cooling degree days 197 184  
Year to date cooling degree days 1722 1834  
Growing Degree Days 24 (Base 50)    
Moisture  
Dew Point 56 °F    
Average Humidity 55    
Maximum Humidity 84    
Minimum Humidity 26    
Precipitation  
Precipitation 0.00 in 0.13 in 2.43 in (1957)
Month to date precipitation 1.44 1.96  
Year to date precipitation 53.70 39.04  
Sea Level Pressure  
Sea Level Pressure 30.09 in    
Wind  
Wind Speed 3 mph (SSW)    
Max Wind Speed 15 mph    
Max Gust Speed 23 mph    
Visibility 10 miles    
Events      
T = Trace of Precipitation, MM = Missing Value Source: NWS Daily Summary

Daily Weather History Graph

Daily Weather History Graph

Search for Another Location

Airport or City:

Trip Planner

Search our weather history database for the weather conditions in past years. The results will help you decide how hot, cold, wet, or windy it might be!

Date:

Astronomy

Sep. 15, 2013 Rise Set
Actual Time 6:30 AM CDT 6:53 PM CDT
Civil Twilight 6:05 AM CDT 7:17 PM CDT
Nautical Twilight 5:36 AM CDT 7:47 PM CDT
Astronomical Twilight 5:06 AM CDT 8:16 PM CDT
Moon 4:11 PM CDT (9/15) 2:17 AM CDT (9/15)
Length of Visible Light 13h 12m
Length of Day
12h 22m
Waxing Gibbous, 82% of the Moon is Illuminated
Sep 15
Waxing Gibbous
Sep 19
Full
Sep 26
Last Quarter
Oct 4
New
Oct 11
First Quarter

Hourly Weather History & Observations

Time (CDT) Temp. Heat Index Dew Point Humidity Pressure Visibility Wind Dir Wind Speed Gust Speed Precip Events Conditions
12:53 AM 62.1 °F - 55.9 °F 80% 30.06 in 10.0 mi Calm Calm - N/A   Clear
1:53 AM 60.1 °F - 55.9 °F 86% 30.06 in 10.0 mi Calm Calm - N/A   Clear
2:53 AM 60.1 °F - 55.9 °F 86% 30.06 in 10.0 mi Calm Calm - N/A   Clear
3:53 AM 63.0 °F - 57.0 °F 81% 30.06 in 10.0 mi Calm Calm - N/A   Clear
4:53 AM 62.1 °F - 55.9 °F 80% 30.07 in 10.0 mi Calm Calm - N/A   Clear
5:53 AM 63.0 °F - 57.0 °F 81% 30.08 in 10.0 mi Calm Calm - N/A   Clear
6:53 AM 64.0 °F - 57.0 °F 78% 30.10 in 10.0 mi ENE 3.5 mph - N/A   Clear
7:53 AM 66.9 °F - 59.0 °F 76% 30.11 in 10.0 mi ENE 3.5 mph - N/A   Clear
8:53 AM 71.1 °F - 61.0 °F 70% 30.12 in 10.0 mi ESE 5.8 mph - N/A   Clear
9:53 AM 73.9 °F - 62.1 °F 66% 30.12 in 10.0 mi East 5.8 mph - N/A   Clear
10:53 AM 79.0 °F - 57.0 °F 47% 30.13 in 10.0 mi Variable 3.5 mph - N/A   Clear
11:53 AM 82.0 °F 81.4 °F 55.0 °F 39% 30.12 in 10.0 mi Calm Calm - N/A   Clear
12:53 PM 84.9 °F 83.2 °F 53.1 °F 33% 30.11 in 10.0 mi SSW 11.5 mph 16.1 mph N/A   Clear
1:53 PM 86.0 °F - 51.1 °F 30% 30.09 in 10.0 mi SW 10.4 mph 16.1 mph N/A   Clear
2:53 PM 88.0 °F - 48.9 °F 26% 30.08 in 10.0 mi WSW 11.5 mph - N/A   Clear
3:53 PM 87.1 °F - 48.0 °F 26% 30.07 in 10.0 mi WSW 8.1 mph - N/A   Clear
4:53 PM 87.1 °F - 48.9 °F 27% 30.08 in 10.0 mi WSW 5.8 mph - N/A   Clear
5:53 PM 84.0 °F - 52.0 °F 33% 30.08 in 10.0 mi WNW 6.9 mph - N/A   Clear
6:53 PM 77.0 °F - 55.9 °F 48% 30.08 in 10.0 mi Calm Calm - N/A   Clear
7:53 PM 73.0 °F - 59.0 °F 61% 30.09 in 10.0 mi Calm Calm - N/A   Clear
8:53 PM 71.1 °F - 59.0 °F 66% 30.12 in 10.0 mi Calm Calm - N/A   Clear
9:53 PM 66.9 °F - 59.0 °F 76% 30.12 in 10.0 mi Calm Calm - N/A   Clear
10:53 PM 66.9 °F - 59.0 °F 76% 30.12 in 10.0 mi Calm Calm - N/A   Clear
11:53 PM 64.9 °F - 57.9 °F 78% 30.12 in 10.0 mi Calm Calm - N/A   Clear